• In Netherlands
  • List of Countries
  • For 7 days
  • Water Temperature
  • Satellite Maps
  • Weather Map
  • Weather Widgets
  • user-avatar
    Login

    Hourly Weather Malanje

    Today, 22 June, Thursday

    Time Temperature Precipitation Wind Pressure Humidity
    00:00 +17°C° 0 mm 2 mps 665 mmHg 45%
    01:00 +17°C° 0 mm 2 mps 666 mmHg 48%
    02:00 +16°C° 0 mm 2 mps 665 mmHg 50%
    03:00 +16°C° 0 mm 2 mps 665 mmHg 53%
    04:00 +15°C° 0 mm 2 mps 665 mmHg 55%
    05:00 +15°C° 0 mm 2 mps 666 mmHg 55%
    06:00 +16°C° 0 mm 3 mps 666 mmHg 55%
    07:00 +16°C° 0 mm 3 mps 667 mmHg 54%
    08:00 +20°C° 0 mm 4 mps 667 mmHg 46%
    09:00 +23°C° 0 mm 4 mps 668 mmHg 39%
    10:00 +27°C° 0 mm 5 mps 668 mmHg 31%
    11:00 +28°C° 0 mm 4 mps 668 mmHg 27%
    12:00 +30°C° 0 mm 3 mps 668 mmHg 24%
    13:00 +31°C° 0 mm 3 mps 667 mmHg 21%
    14:00 +31°C° 0 mm 2 mps 667 mmHg 21%
    15:00 +31°C° 0 mm 2 mps 666 mmHg 20%
    16:00 +31°C° 0 mm 2 mps 666 mmHg 20%
    17:00 +28°C° 0 mm 2 mps 665 mmHg 25%
    18:00 +25°C° 0 mm 2 mps 665 mmHg 29%
    19:00 +21°C° 0 mm 2 mps 665 mmHg 34%
    20:00 +20°C° 0 mm 2 mps 665 mmHg 36%
    21:00 +19°C° 0 mm 2 mps 665 mmHg 39%
    22:00 +18°C° 0 mm 2 mps 665 mmHg 41%
    23:00 +18°C° 0 mm 2 mps 665 mmHg 45%

    Tomorrow, 23 June, Friday

    Time Temperature Precipitation Wind Pressure Humidity
    00:00 +18°C° 0 mm 1 mps 665 mmHg 49%
    01:00 +16°C° 0 mm 1 mps 665 mmHg 53%
    02:00 +16°C° 0 mm 1 mps 665 mmHg 53%
    03:00 +15°C° 0 mm 2 mps 665 mmHg 53%
    04:00 +15°C° 0 mm 2 mps 665 mmHg 52%
    05:00 +15°C° 0 mm 2 mps 665 mmHg 51%
    06:00 +14°C° 0 mm 3 mps 666 mmHg 50%
    07:00 +14°C° 0 mm 3 mps 666 mmHg 48%
    08:00 +19°C° 0 mm 4 mps 667 mmHg 41%
    09:00 +22°C° 0 mm 4 mps 668 mmHg 34%
    10:00 +26°C° 0 mm 5 mps 668 mmHg 27%
    11:00 +28°C° 0 mm 5 mps 668 mmHg 24%
    12:00 +29°C° 0 mm 4 mps 668 mmHg 22%
    13:00 +32°C° 0 mm 4 mps 667 mmHg 20%
    14:00 +31°C° 0 mm 3 mps 667 mmHg 19%
    15:00 +31°C° 0 mm 3 mps 666 mmHg 19%
    16:00 +31°C° 0 mm 2 mps 666 mmHg 19%
    17:00 +27°C° 0 mm 2 mps 665 mmHg 24%
    18:00 +24°C° 0 mm 2 mps 665 mmHg 29%
    19:00 +20°C° 0 mm 2 mps 664 mmHg 34%
    20:00 +19°C° 0 mm 2 mps 664 mmHg 35%
    21:00 +19°C° 0 mm 2 mps 665 mmHg 36%
    22:00 +18°C° 0 mm 2 mps 665 mmHg 37%
    23:00 +18°C° 0 mm 2 mps 665 mmHg 37%

    Day after tomorrow, 24 June, Saturday

    Time Temperature Precipitation Wind Pressure Humidity
    00:00 +18°C° 0 mm 2 mps 665 mmHg 38%
    01:00 +17°C° 0 mm 2 mps 665 mmHg 38%
    02:00 +17°C° 0 mm 3 mps 665 mmHg 39%
    03:00 +16°C° 0 mm 3 mps 665 mmHg 41%
    04:00 +14°C° 0 mm 3 mps 664 mmHg 42%
    05:00 +14°C° 0 mm 3 mps 665 mmHg 43%
    06:00 +14°C° 0 mm 3 mps 665 mmHg 43%
    07:00 +14°C° 0 mm 4 mps 665 mmHg 44%
    08:00 +19°C° 0 mm 4 mps 666 mmHg 38%
    09:00 +22°C° 0 mm 5 mps 667 mmHg 31%
    10:00 +27°C° 0 mm 5 mps 668 mmHg 25%
    11:00 +28°C° 0 mm 5 mps 668 mmHg 23%
    12:00 +30°C° 0 mm 4 mps 667 mmHg 20%
    13:00 +33°C° 0 mm 4 mps 667 mmHg 18%
    14:00 +33°C° 0 mm 3 mps 666 mmHg 17%
    15:00 +33°C° 0 mm 3 mps 666 mmHg 17%
    16:00 +32°C° 0 mm 2 mps 665 mmHg 17%
    17:00 +28°C° 0 mm 2 mps 665 mmHg 22%
    18:00 +25°C° 0 mm 2 mps 664 mmHg 27%
    19:00 +20°C° 0 mm 2 mps 664 mmHg 32%
    20:00 +19°C° 0 mm 2 mps 664 mmHg 34%
    21:00 +20°C° 0 mm 1 mps 664 mmHg 35%
    22:00 +19°C° 0 mm 1 mps 664 mmHg 37%
    23:00 +18°C° 0 mm 1 mps 664 mmHg 38%

    25 June, Sunday

    Time Temperature Precipitation Wind Pressure Humidity
    00:00 +18°C° 0 mm 1 mps 664 mmHg 39%
    01:00 +18°C° 0 mm 1 mps 664 mmHg 40%
    02:00 +16°C° 0 mm 1 mps 663 mmHg 42%
    03:00 +15°C° 0 mm 1 mps 663 mmHg 44%
    04:00 +15°C° 0 mm 1 mps 663 mmHg 46%
    05:00 +15°C° 0 mm 1 mps 664 mmHg 45%
    06:00 +16°C° 0 mm 2 mps 664 mmHg 44%
    07:00 +16°C° 0 mm 2 mps 665 mmHg 44%
    08:00 +20°C° 0 mm 2 mps 666 mmHg 37%
    09:00 +25°C° 0 mm 3 mps 666 mmHg 31%
    10:00 +28°C° 0 mm 3 mps 667 mmHg 24%
    11:00 +30°C° 0 mm 3 mps 667 mmHg 22%
    12:00 +31°C° 0 mm 3 mps 666 mmHg 20%
    13:00 +34°C° 0 mm 3 mps 666 mmHg 18%
    14:00 +34°C° 0 mm 3 mps 665 mmHg 18%
    15:00 +34°C° 0 mm 2 mps 665 mmHg 18%
    16:00 +34°C° 0 mm 2 mps 665 mmHg 18%
    17:00 +29°C° 0 mm 2 mps 664 mmHg 23%
    18:00 +26°C° 0 mm 2 mps 664 mmHg 28%
    19:00 +23°C° 0 mm 2 mps 664 mmHg 33%
    20:00 +21°C° 0 mm 2 mps 664 mmHg 35%
    21:00 +20°C° 0 mm 2 mps 664 mmHg 37%
    22:00 +20°C° 0 mm 1 mps 664 mmHg 39%
    23:00 +20°C° 0 mm 1 mps 664 mmHg 42%

    26 June, Monday

    Time Temperature Precipitation Wind Pressure Humidity
    00:00 +19°C° 0 mm 1 mps 663 mmHg 45%
    01:00 +18°C° 0 mm 1 mps 663 mmHg 48%
    02:00 +16°C° 0 mm 1 mps 663 mmHg 52%
    03:00 +16°C° 0 mm 1 mps 663 mmHg 57%
    04:00 +15°C° 0 mm 1 mps 663 mmHg 62%
    05:00 +16°C° 0 mm 1 mps 664 mmHg 59%
    06:00 +18°C° 0 mm 1 mps 664 mmHg 56%
    07:00 +19°C° 0 mm 1 mps 665 mmHg 54%
    08:00 +22°C° 0 mm 1 mps 666 mmHg 44%
    09:00 +26°C° 0 mm 2 mps 667 mmHg 34%
    10:00 +29°C° 0 mm 2 mps 668 mmHg 24%
    11:00 +31°C° 0 mm 2 mps 667 mmHg 22%
    12:00 +33°C° 0 mm 3 mps 667 mmHg 21%
    13:00 +34°C° 0 mm 3 mps 666 mmHg 19%
    14:00 +34°C° 0 mm 3 mps 666 mmHg 19%
    15:00 +34°C° 0 mm 3 mps 665 mmHg 19%
    16:00 +34°C° 0 mm 3 mps 665 mmHg 19%
    17:00 +30°C° 0 mm 3 mps 665 mmHg 24%
    18:00 +27°C° 0 mm 2 mps 664 mmHg 29%
    19:00 +23°C° 0 mm 2 mps 664 mmHg 35%
    20:00 +21°C° 0 mm 2 mps 664 mmHg 37%
    21:00 +21°C° 0 mm 1 mps 664 mmHg 39%
    22:00 +20°C° 0 mm 1 mps 664 mmHg 42%
    23:00 +20°C° 0 mm 1 mps 664 mmHg 45%

    27 June, Tuesday

    Time Temperature Precipitation Wind Pressure Humidity
    00:00 +19°C° 0 mm 1 mps 664 mmHg 48%
    01:00 +18°C° 0 mm 1 mps 664 mmHg 51%
    02:00 +18°C° 0 mm 1 mps 664 mmHg 52%
    03:00 +18°C° 0 mm 1 mps 664 mmHg 53%
    04:00 +16°C° 0 mm 1 mps 664 mmHg 55%
    05:00 +18°C° 0 mm 1 mps 665 mmHg 53%
    06:00 +19°C° 0 mm 1 mps 665 mmHg 52%
    07:00 +19°C° 0 mm 1 mps 666 mmHg 51%
    08:00 +23°C° 0 mm 2 mps 667 mmHg 42%
    09:00 +26°C° 0 mm 2 mps 668 mmHg 34%
    10:00 +29°C° 0 mm 3 mps 669 mmHg 25%
    11:00 +31°C° 0 mm 3 mps 668 mmHg 23%
    12:00 +33°C° 0 mm 3 mps 668 mmHg 21%
    13:00 +34°C° 0 mm 4 mps 667 mmHg 18%
    14:00 +34°C° 0 mm 3 mps 667 mmHg 18%
    15:00 +34°C° 0 mm 3 mps 666 mmHg 18%
    16:00 +34°C° 0 mm 3 mps 666 mmHg 18%
    17:00 +30°C° 0 mm 2 mps 666 mmHg 22%
    18:00 +27°C° 0 mm 2 mps 666 mmHg 27%
    19:00 +24°C° 0 mm 2 mps 665 mmHg 31%
    20:00 +23°C° 0 mm 2 mps 666 mmHg 33%
    21:00 +21°C° 0 mm 2 mps 666 mmHg 35%
    22:00 +21°C° 0 mm 2 mps 666 mmHg 37%
    23:00 +20°C° 0 mm 1 mps 665 mmHg 43%
    Show more